Simultaneous Nadir Overpasses (SNOs) Predictions

Prediction of SNOs between LANDSAT-8 and NPP Satellite Orbit:

Table of predicted SNOs for the next 14.0 days since TLE Epoch: 11/27/2015
Index Date (LANDSAT-8) Time (LANDSAT-8) Lat,Lon (LANDSAT-8) SZA (LANDSAT-8 ) Date (NPP) Time (NPP) Lat,Lon (NPP) SZA (NPP ) Distance(km) Time Diff (sec)
1 11/27/2015 20:46:25 -71.08, 46.28 87.84 11/27/2015 20:45:17 -71.13, 44.08 87.79 79.08 68
2 11/27/2015 21:36:05 70.28,-147.30 91.36 11/27/2015 21:35:47 70.30,-147.25 91.38 2.49 18
3 11/27/2015 22:25:34 -70.22, 20.25 88.70 11/27/2015 22:26:29 -70.19, 20.23 88.73 2.83 55
4 11/30/2015 13:03:07 -70.37, 161.08 88.10 11/30/2015 13:01:57 -70.38, 161.07 88.09 1.14 70
5 11/30/2015 13:52:34 70.27, -31.43 91.81 11/30/2015 13:52:41 70.29, -31.47 91.83 2.20 7
6 11/30/2015 14:42:07 -70.00, 135.81 88.47 11/30/2015 14:43:19 -69.97, 136.33 88.49 20.05 72
7 12/03/2015 05:19:37 -70.30, -83.14 87.76 12/03/2015 05:18:50 -70.32, -83.07 87.74 3.50 47
8 12/03/2015 06:09:03 70.26, 84.43 92.20 12/03/2015 06:09:34 70.23, 84.39 92.18 3.38 31
9 12/05/2015 20:46:22 71.09,-133.70 93.39 12/05/2015 20:45:15 71.16,-135.99 93.48 82.80 67
10 12/05/2015 21:36:04 -70.33, 32.78 87.37 12/05/2015 21:35:43 -70.32, 32.71 87.38 3.04 21
11 12/05/2015 22:25:32 70.17,-159.81 92.48 12/05/2015 22:26:26 70.17,-159.76 92.48 2.16 54
12 12/08/2015 13:03:03 70.40, -18.88 93.00 12/08/2015 13:01:54 70.37, -18.93 92.99 3.14 69
13 12/08/2015 13:52:34 -70.24, 148.52
